Preview of NWS' New Version of Forecast
This preview is not operational and should not be used for support decisions.

Regional Weather Roundup (RWR)

Issued by National Weather Service (NWS)

                            
000
ASCA42 TJSJ 211010
RWRPR 
PUERTO RICO/U.S. VIRGIN ISLANDS HOURLY WEATHER ROUNDUP
NATIONAL WEATHER SERVICE SAN JUAN PR
600 AM AST THU FEB 21 2019

PRZ001>002-007>008-010-211100-
PUERTO RICO
  
CITY           SKY/WX    TMP DP  RH WIND       PRES   REMARKS
SAN JUAN LMM   PTCLDY    73  66  78 SE5       30.08R                  
AGUADILLA      PTCLDY    68 N/A N/A SE5       30.09R                  
CEIBA          PTCLDY    73  64  73 E8        30.09S                  
$$

VIZ001>002-211100-
U.S. VIRGIN ISLANDS
  
CITY           SKY/WX    TMP DP  RH WIND       PRES   REMARKS
CHARLOTTE AMA  MOCLDY    73  66  78 E17G29    30.07R                  
CHRISTIANSTED  CLEAR     77  63  61 E12       30.07R                  
$$

HOURLY WEATHER ROUNDUP FOR THE NEWS MEDIA
  
CITY           SKY/WX    TMP DP  RH WIND       PRES   REMARKS
ORLANDO        FOG       67  66  97 CALM      30.10R VSB 3/4          
NEW YORK       FOG       34  34 100 N12       29.91R VSB 1   WCI  25  
NEWARK         CLOUDY    34  33  96 NW5       29.92R WCI  30          
CHICAGO        FAIR      27  19  72 SW13G21   30.00R WCI  16          
HARTFORD       MIX PCPN  34  34 100 E6        29.86F FOG     WCI  29  
BOSTON         FRZ DRZL  33  30  88 N9        29.94S FOG     WCI  25  
DALLAS         MOCLDY    45  35  68 SE8       30.00S                  
PHILADELPHIA   CLOUDY    34  33  96 W6        29.96  WCI  29          
LOS ANGELES    MOCLDY    47  41  80 SE3       29.66F                  
WASHINGTON DC  CLOUDY    32  31  96 CALM      29.99R